Back to catalog

COSMOS 1305

AliveMilitaryHEO
NORAD 12818·PAYLOAD·🇷🇺 Russia

Launched Sep 11, 1981 from Plesetsk Cosmodrome

Loading…

Next Passes (next 24 hours)

TLE

FreshSource: Space-Track

Epoch: Sep 14, 2026, 02:08 UTC

1 12818U 81088A   26257.08954555  .00000038  00000-0  19214-3 0  9999
2 12818  62.7849 302.5336 4897754 273.4553  34.0533  5.46291795897610

Track COSMOS 1305 in real time with AllMySat

Download on the App Store